Regional Weather Roundup
Issued by NWS Midland/Odessa, TX

Skip options and go directly to product.
Home | Oldest Version | Previous Version | Current Version | All | Text Only | Save Text | Print | Product List | Glossary Off

Skip product version selection by date and time.   

746
ASUS44 KMAF 030710
RWRMAF
MIDLAND AREA WEATHER ROUNDUP
NATIONAL WEATHER SERVICE MIDLAND TX
200 AM CDT FRI JUL 03 2015

...IN SOUTHWEST TEXAS AND SOUTHEAST NEW MEXICO...

CITY           SKY/WX    TMP DP  RH WIND       PRES   REMARKS
ALPINE         CLEAR     67  59  77 CALM      30.12S
ANDREWS        FAIR      72  63  72 S6        30.05R
ARTESIA        CLOUDY    77  61  57 NE5       30.05S
BIG SPRING     MOCLDY    79  65  62 SE7       30.05R
CARLSBAD       CLOUDY    79  62  56 SE7       30.03R
DRYDEN           N/A     78  66  66 VRB6      29.94S
FORT STOCKTON  PTCLDY    72  62  71 E3        30.00S
GUAD PASS      CLOUDY    69  58  67 NE15      30.17R
HOBBS          CLOUDY    73  63  68 SE9       30.08R
MARFA          CLEAR    N/A N/A N/A CALM      30.10F
MIDLAND AIRPK  MOCLDY    77  64  63 S5        30.03S
MIDLAND INTL   MOCLDY    74  64  71 SE5       30.02R
ODESSA         MOCLDY    75  62  64 SE7       30.03R
PECOS          PTCLDY    74  62  66 NE7       29.99R
PRESIDIO       NOT AVBL
SEMINOLE       CLOUDY    73  62  68 S6        30.07S
SNYDER         CLOUDY    75  65  71 S7        30.01F
WINK           MOCLDY    76  62  62 SE6       30.00R
$$
...OTHER STATIONS IN TEXAS...

CITY           SKY/WX    TMP DP  RH WIND       PRES   REMARKS
ABILENE        MOCLDY    78  67  68 S10       29.99S
AMARILLO       CLOUDY    66  61  84 SW7       30.07F
AUSTIN         PTCLDY    73  73 100 VRB3      30.00R
BROWNSVILLE    CLEAR     75  72  90 SE6       29.95F
CORPUS CHRISTI CLOUDY    80  77  90 S9        29.96S
DALLAS FTW     MOCLDY    83  68  60 S20       29.94R
DEL RIO        CLEAR     78  68  71 E10G20    29.92R
EL PASO        CLOUDY    85  44  23 E9        30.01R
HOUSTON INT    MOCLDY    76  74  93 SE3       30.00S
LUBBOCK        MOCLDY    75  64  68 S9        30.05R
SAN ANGELO     PTCLDY    73  68  84 E6        30.00R
SAN ANTONIO    CLOUDY    79  74  84 S9        30.01R
WACO           CLEAR     78  72  81 S16       29.97S
WICHITA FALLS  NOT AVBL
$$
...OTHER LOCATIONS IN NEW MEXICO...

CITY           SKY/WX    TMP DP  RH WIND       PRES   REMARKS
ALAMAGORDO     MOCLDY    75  57  53 N10G17    30.05F
ALBUQUERQUE    CLOUDY    70  58  65 N8        30.19F
CANNON AFB     CLOUDY    71  63  75 S2        30.09F
CLOVIS         CLOUDY    70  63  78 S5          N/A
HOLLOMAN AFB   MOCLDY    73  63  68 W8        30.03F
ROSWELL        CLOUDY    74  64  71 N5        30.05S
RUIDOSO        MOCLDY    59  57  94 W8        30.28F
SANTA FE       MOCLDY    63  58  83 E6        30.26S
TRUTH OR CONSE CLOUDY    77  54  44 N5        30.13R
TUCUMCARI      LGT RAIN  69  63  81 NE10      30.08S
$$

USA.gov is the U.S. government's official web portal to all federal, state and local government web resources and services.